Regional Weather Roundup
Issued by NWS

Home | Current Version | Previous Version | Text Only | Print | Product List | Glossary Off
Versions: 1 2 3 4 5 6 7 8 9 10 11 12 13 14 15 16 17 18 19 20 21 22 23 24 25 26 27 28 29 30 31 32 33 34 35 36 37 38 39 40 41 42 43 44 45 46 47 48 49 50

000
ASUS43 KFSD 220402
RWRSD

WEATHER ROUNDUP FOR SOUTH DAKOTA
NATIONAL WEATHER SERVICE SIOUX FALLS SD
1000 PM CST TUE NOV 21 2017

NOTE: "FAIR" INDICATES FEW OR NO CLOUDS BELOW 12,000 FEET WITH NO
SIGNIFICANT WEATHER AND/OR OBSTRUCTIONS TO VISIBILITY.


SDZ001>005-009-010-012>017-220500-
NORTHWEST AND NORTH CENTRAL SOUTH DAKOTA

CITY           SKY/WX    TMP DP  RH WIND       PRES   REMARKS
BUFFALO          N/A     21   9  59 S8        30.11F WCI  11
FAITH            N/A     17   4  56 S13       30.23F WCI   4
MOBRIDGE       CLOUDY    10   2  69 CALM      30.28F
$$

SDZ012>016-024>037-041>051-057-063-072>074-220500-
SOUTHWEST AND SOUTH CENTRAL SOUTH DAKOTA

CITY           SKY/WX    TMP DP  RH WIND       PRES   REMARKS
RAPID CTY ARPT CLOUDY    21  15  78 SE5       30.21F WCI  15
PIERRE         CLOUDY    14   5  67 CALM      30.31F
CUSTER         CLOUDY    31  22  69 SW5       30.16F WCI  26
ELLSWORTH AFB  CLOUDY    28  20  71 S9        30.19F WCI  19
PHILIP         CLOUDY    16  11  80 E5        30.29F WCI   9
PINE RIDGE     CLOUDY    19  17  92 CALM      30.23F
SPEARFISH      FAIR      27  23  86 CALM      30.15S
WINNER         FAIR      15   8  73 S3        30.33F
$$

SDZ004>011-016>023-039-040-220500-
NORTHEAST SOUTH DAKOTA

CITY           SKY/WX    TMP DP  RH WIND       PRES   REMARKS
ABERDEEN       CLOUDY     6   3  87 CALM      30.36S
WATERTOWN      CLOUDY    15   8  73 NW6       30.31R WCI   6
BROOKINGS      CLOUDY    15   7  70 W3        30.34R
SISSETON         N/A     12   6  77 W7        30.35R WCI   1
$$

SDZ017-020-022-023-036>040-048>070-220500-
SOUTHEAST SOUTH DAKOTA

CITY           SKY/WX    TMP DP  RH WIND       PRES   REMARKS
SIOUX FALLS    CLOUDY    13   6  74 CALM      30.35F
HURON          CLOUDY     9   5  84 NW5       30.38R WCI   1
CHAMBERLAIN    CLOUDY    14  10  85 CALM      30.35F
MITCHELL       CLOUDY    15   8  73 W6        30.38F WCI   6
YANKTON        CLOUDY    15   9  76 NW5       30.38F WCI   8
$$

ABBREVIATIONS USED IN REMARKS
   TC - TEMPERATURE IN CELSIUS
  WCI - WIND CHILL INDEX
   HX - HEAT INDEX
  VSB - VISIBILITY




USA.gov is the U.S. government's official web portal to all federal, state and local government web resources and services.